Hourly Weather Podrubezh

Today, 9 August, Sunday

Time Temperature Precipitation Wind Pressure Humidity
00:00 +19°C° 0 mm 1 mps 750 mmHg 91%
01:00 +19°C° 0 mm 1 mps 750 mmHg 92%
02:00 +18°C° 0 mm 1 mps 750 mmHg 92%
03:00 +18°C° 0 mm 1 mps 750 mmHg 92%
04:00 +18°C° 0 mm 1 mps 750 mmHg 93%
05:00 +18°C° 0 mm 1 mps 749 mmHg 93%
06:00 +19°C° 0 mm 1 mps 749 mmHg 87%
07:00 +21°C° 0 mm 1 mps 750 mmHg 81%
08:00 +23°C° 0 mm 1 mps 750 mmHg 75%
09:00 +24°C° 0.2 mm 1 mps 749 mmHg 71%
10:00 +25°C° 0.2 mm 2 mps 749 mmHg 68%
11:00 +26°C° 0.2 mm 2 mps 749 mmHg 64%
12:00 +26°C° 0.8 mm 2 mps 749 mmHg 64%
13:00 +26°C° 0.8 mm 2 mps 749 mmHg 65%
14:00 +26°C° 0.8 mm 2 mps 748 mmHg 65%
15:00 +26°C° 0.1 mm 2 mps 748 mmHg 65%
16:00 +26°C° 0.1 mm 2 mps 748 mmHg 65%
17:00 +26°C° 0.1 mm 2 mps 748 mmHg 65%
18:00 +24°C° 0 mm 2 mps 748 mmHg 71%
19:00 +23°C° 0 mm 1 mps 748 mmHg 76%
20:00 +21°C° 0 mm 1 mps 748 mmHg 81%
21:00 +20°C° 0 mm 1 mps 748 mmHg 82%
22:00 +20°C° 0 mm 1 mps 748 mmHg 84%
23:00 +19°C° 0 mm 1 mps 748 mmHg 85%

Tomorrow, 10 August, Monday

Time Temperature Precipitation Wind Pressure Humidity
00:00 +19°C° 0 mm 1 mps 748 mmHg 87%
01:00 +19°C° 0 mm 1 mps 748 mmHg 88%
02:00 +18°C° 0 mm 1 mps 748 mmHg 90%
03:00 +18°C° 0 mm 1 mps 748 mmHg 91%
04:00 +18°C° 0 mm 1 mps 747 mmHg 92%
05:00 +16°C° 0 mm 1 mps 747 mmHg 94%
06:00 +18°C° 0 mm 2 mps 747 mmHg 88%
07:00 +20°C° 0 mm 2 mps 748 mmHg 83%
08:00 +21°C° 0 mm 2 mps 748 mmHg 77%
09:00 +24°C° 0 mm 2 mps 748 mmHg 71%
10:00 +25°C° 0 mm 2 mps 748 mmHg 65%
11:00 +26°C° 0 mm 2 mps 748 mmHg 59%
12:00 +27°C° 0.2 mm 2 mps 747 mmHg 58%
13:00 +27°C° 0.2 mm 2 mps 747 mmHg 56%
14:00 +28°C° 0.2 mm 2 mps 747 mmHg 54%
15:00 +28°C° 0.1 mm 2 mps 747 mmHg 56%
16:00 +28°C° 0.1 mm 2 mps 747 mmHg 57%
17:00 +27°C° 0.1 mm 2 mps 746 mmHg 59%
18:00 +25°C° 0.3 mm 2 mps 746 mmHg 67%
19:00 +23°C° 0.3 mm 2 mps 746 mmHg 74%
20:00 +20°C° 0.3 mm 2 mps 746 mmHg 82%
21:00 +19°C° 0.3 mm 2 mps 747 mmHg 85%
22:00 +19°C° 0.3 mm 2 mps 747 mmHg 88%
23:00 +18°C° 0.3 mm 2 mps 747 mmHg 91%

Day after tomorrow, 11 August, Tuesday

Time Temperature Precipitation Wind Pressure Humidity
00:00 +18°C° 0 mm 2 mps 747 mmHg 92%
01:00 +17°C° 0 mm 2 mps 747 mmHg 93%
02:00 +17°C° 0 mm 2 mps 747 mmHg 94%
03:00 +16°C° 0 mm 2 mps 747 mmHg 94%
04:00 +16°C° 0 mm 2 mps 747 mmHg 95%
05:00 +16°C° 0 mm 2 mps 747 mmHg 95%
06:00 +17°C° 0 mm 2 mps 747 mmHg 91%
07:00 +18°C° 0 mm 3 mps 747 mmHg 87%
08:00 +19°C° 0 mm 3 mps 747 mmHg 84%
09:00 +20°C° 0 mm 3 mps 747 mmHg 75%
10:00 +21°C° 0 mm 4 mps 748 mmHg 67%
11:00 +22°C° 0 mm 4 mps 748 mmHg 58%
12:00 +22°C° 0 mm 4 mps 748 mmHg 57%
13:00 +23°C° 0 mm 4 mps 748 mmHg 55%
14:00 +23°C° 0 mm 4 mps 748 mmHg 54%
15:00 +22°C° 0 mm 4 mps 748 mmHg 56%
16:00 +22°C° 0 mm 4 mps 748 mmHg 59%
17:00 +21°C° 0 mm 4 mps 748 mmHg 61%
18:00 +19°C° 0 mm 3 mps 748 mmHg 67%
19:00 +17°C° 0 mm 3 mps 748 mmHg 73%
20:00 +15°C° 0 mm 2 mps 748 mmHg 80%
21:00 +14°C° 0 mm 3 mps 749 mmHg 80%
22:00 +13°C° 0 mm 3 mps 749 mmHg 81%
23:00 +12°C° 0 mm 3 mps 749 mmHg 82%

12 August, Wednesday

Time Temperature Precipitation Wind Pressure Humidity
00:00 +11°C° 0 mm 3 mps 749 mmHg 84%
01:00 +11°C° 0 mm 3 mps 749 mmHg 86%
02:00 +10°C° 0 mm 3 mps 749 mmHg 88%
03:00 +9°C° 0 mm 3 mps 749 mmHg 89%
04:00 +9°C° 0 mm 3 mps 749 mmHg 90%
05:00 +8°C° 0 mm 3 mps 750 mmHg 91%
06:00 +10°C° 0 mm 3 mps 750 mmHg 85%
07:00 +11°C° 0 mm 3 mps 750 mmHg 79%
08:00 +13°C° 0 mm 4 mps 750 mmHg 73%
09:00 +14°C° 0 mm 4 mps 750 mmHg 71%
10:00 +15°C° 0 mm 4 mps 750 mmHg 68%
11:00 +17°C° 0 mm 4 mps 750 mmHg 65%
12:00 +17°C° 0 mm 3 mps 750 mmHg 62%
13:00 +18°C° 0 mm 3 mps 750 mmHg 59%
14:00 +19°C° 0 mm 3 mps 750 mmHg 57%
15:00 +19°C° 0 mm 3 mps 750 mmHg 58%
16:00 +19°C° 0 mm 3 mps 750 mmHg 59%
17:00 +19°C° 0 mm 2 mps 750 mmHg 60%
18:00 +17°C° 0 mm 2 mps 750 mmHg 66%
19:00 +16°C° 0 mm 2 mps 750 mmHg 72%
20:00 +14°C° 0 mm 2 mps 750 mmHg 78%
21:00 +13°C° 0 mm 1 mps 750 mmHg 81%
22:00 +12°C° 0 mm 1 mps 750 mmHg 84%
23:00 +12°C° 0 mm 1 mps 751 mmHg 87%

13 August, Thursday

Time Temperature Precipitation Wind Pressure Humidity
00:00 +11°C° 0 mm 1 mps 751 mmHg 88%
01:00 +11°C° 0 mm 1 mps 751 mmHg 89%
02:00 +10°C° 0 mm 1 mps 750 mmHg 90%
03:00 +10°C° 0 mm 1 mps 750 mmHg 90%
04:00 +10°C° 0 mm 1 mps 750 mmHg 91%
05:00 +10°C° 0 mm 1 mps 750 mmHg 91%
06:00 +12°C° 0 mm 1 mps 750 mmHg 84%
07:00 +14°C° 0 mm 1 mps 750 mmHg 76%
08:00 +16°C° 0 mm 1 mps 750 mmHg 69%
09:00 +18°C° 0 mm 1 mps 750 mmHg 64%
10:00 +19°C° 0 mm 1 mps 750 mmHg 58%
11:00 +21°C° 0 mm 1 mps 750 mmHg 53%
12:00 +21°C° 0 mm 1 mps 750 mmHg 52%
13:00 +21°C° 0 mm 1 mps 749 mmHg 51%
14:00 +22°C° 0 mm 1 mps 749 mmHg 50%
15:00 +20°C° 0 mm 2 mps 749 mmHg 54%
16:00 +20°C° 0 mm 2 mps 749 mmHg 57%
17:00 +20°C° 0 mm 2 mps 749 mmHg 61%
18:00 +19°C° 0 mm 1 mps 749 mmHg 65%
19:00 +16°C° 0 mm 1 mps 749 mmHg 70%
20:00 +14°C° 0 mm 0 mps 749 mmHg 75%
21:00 +14°C° 0 mm 1 mps 749 mmHg 78%
22:00 +14°C° 0 mm 1 mps 749 mmHg 80%
23:00 +13°C° 0 mm 1 mps 749 mmHg 83%

14 August, Friday

Time Temperature Precipitation Wind Pressure Humidity
00:00 +13°C° 0 mm 1 mps 748 mmHg 85%
01:00 +12°C° 0 mm 1 mps 748 mmHg 87%
02:00 +12°C° 0 mm 1 mps 748 mmHg 89%
03:00 +12°C° 0 mm 1 mps 748 mmHg 90%
04:00 +11°C° 0 mm 1 mps 748 mmHg 91%
05:00 +11°C° 0 mm 1 mps 748 mmHg 92%
06:00 +13°C° 0 mm 1 mps 748 mmHg 85%
07:00 +15°C° 0 mm 1 mps 748 mmHg 79%
08:00 +18°C° 0 mm 1 mps 748 mmHg 73%
09:00 +18°C° 0 mm 2 mps 748 mmHg 68%
10:00 +20°C° 0 mm 2 mps 748 mmHg 64%
11:00 +21°C° 0 mm 2 mps 748 mmHg 59%
12:00 +21°C° 0 mm 2 mps 748 mmHg 58%
13:00 +23°C° 0 mm 2 mps 748 mmHg 56%
14:00 +22°C° 0 mm 3 mps 748 mmHg 55%
15:00 +22°C° 0 mm 3 mps 748 mmHg 57%
16:00 +23°C° 0 mm 2 mps 747 mmHg 60%
17:00 +23°C° 0 mm 2 mps 747 mmHg 62%
18:00 +20°C° 0 mm 2 mps 747 mmHg 68%
19:00 +19°C° 0 mm 2 mps 747 mmHg 73%
20:00 +17°C° 0 mm 2 mps 747 mmHg 78%
21:00 +16°C° 0 mm 2 mps 747 mmHg 81%
22:00 +16°C° 0 mm 2 mps 747 mmHg 83%
23:00 +15°C° 0 mm 2 mps 747 mmHg 85%
Show more